C/2017 K5 ( PanSTARRS )

Japanese version
Home page
Updated on July 27, 2020

---------------------------------------------------------------------

* Profile

Discovery Date May 27, 2017
Magnitude 22.0 mag
Discoverer Pan-STARRS 1 telescope (Haleakala)

* Pictures

* Orbital Elements

Epoch 2020 Mar. 12.0 TT = JDT 2458920.5
T 2020 Mar. 24.14896 TT                                 Rudenko
q   7.6787294            (2000.0)            P               Q
z  -0.0008256      Peri.  171.83436     +0.19343546     +0.16059030
 +/-0.0000027      Node   102.37351     -0.94682772     +0.28906973
e   1.0063395      Incl.   82.26368     -0.25709920     -0.94374226
From 76 observations 2017 May 27-2020 Apr. 22, mean residual 0".5.

* Magnitudes Graph

        m1 = -8.7 + 5 log d + 25.0 log r

---------------------------------------------------------------------

The orbital elements are published on M.P.E.C. 2020-H235.
The magnitudes graphs are made with Comet for Windows.

---------------------------------------------------------------------

Copyright(C) Seiichi Yoshida (comet@aerith.net). All rights reserved.